RYR7255 EKCH-EPWR

Flight info

Callsign RYR7255
Flight time 0h 56m
Altitude 35000
Route SIMEG Z493 XELOL Z491 VAVUN L996 DENKO L619 XIDNA
Aircraft B38M/M-SDE1FGHILORVWXY/HB1

Departure

Time 2026-05-06 21:45
Airport Copenhagen Kastrup Airport (EKCH)

Arrival

Time 2026-05-06 22:41
Airport Copernicus Wrocław Airport (EPWR)
Time Latitude Longitude Altitude Speed Heading
2026-05-06 21:21 55.62512 12.65468 26 ft 0 kts 23°
2026-05-06 21:37 55.62498 12.65458 28 ft 4 kts 23°
2026-05-06 21:37 55.62477 12.65441 26 ft 2 kts 24°
2026-05-06 21:38 55.62454 12.65425 32 ft 4 kts 25°
2026-05-06 21:38 55.62442 12.65404 31 ft 2 kts 88°
2026-05-06 21:38 55.62442 12.65368 31 ft 0 kts 89°
2026-05-06 21:41 55.62442 12.65371 31 ft 1 kts 89°
2026-05-06 21:41 55.62442 12.65421 30 ft 8 kts 90°
2026-05-06 21:41 55.62443 12.65543 26 ft 11 kts 88°
2026-05-06 21:41 55.62446 12.65722 30 ft 16 kts 88°
2026-05-06 21:42 55.62448 12.65906 30 ft 18 kts 89°
2026-05-06 21:42 55.62498 12.66078 26 ft 6 kts 44°
2026-05-06 21:42 55.62519 12.66160 26 ft 4 kts 103°
2026-05-06 21:42 55.62497 12.66233 26 ft 10 kts 109°
2026-05-06 21:43 55.62512 12.66293 26 ft 7 kts 39°
2026-05-06 21:43 55.62574 12.66387 26 ft 16 kts 45°
2026-05-06 21:43 55.62624 12.66543 26 ft 16 kts 97°
2026-05-06 21:43 55.62566 12.66684 25 ft 13 kts 136°
2026-05-06 21:44 55.62507 12.66703 27 ft 6 kts 224°
2026-05-06 21:44 55.62454 12.66619 28 ft 15 kts 221°
2026-05-06 21:44 55.62284 12.66361 27 ft 68 kts 220°
2026-05-06 21:44 55.61719 12.65488 28 ft 143 kts 220°
2026-05-06 21:45 55.61206 12.64649 292 ft 162 kts 221°
2026-05-06 21:45 55.60368 12.63234 951 ft 178 kts 219°
2026-05-06 21:45 55.59747 12.62301 1762 ft 170 kts 217°
2026-05-06 21:45 55.58447 12.60354 2712 ft 201 kts 218°
2026-05-06 21:46 55.57320 12.58649 3426 ft 225 kts 219°
2026-05-06 21:46 55.56045 12.56824 4140 ft 249 kts 213°
2026-05-06 21:46 55.55026 12.55816 4920 ft 249 kts 203°
2026-05-06 21:46 55.53354 12.54693 5866 ft 265 kts 200°
2026-05-06 21:47 55.51579 12.53509 6743 ft 279 kts 200°
2026-05-06 21:47 55.49761 12.52304 7944 ft 279 kts 200°
2026-05-06 21:47 55.47926 12.51094 9063 ft 283 kts 200°
2026-05-06 21:47 55.46004 12.50382 10193 ft 285 kts 180°
2026-05-06 21:48 55.44019 12.51118 10902 ft 304 kts 156°
2026-05-06 21:48 55.42308 12.53360 11496 ft 322 kts 131°
2026-05-06 21:48 55.41213 12.56855 12211 ft 335 kts 107°
2026-05-06 21:48 55.40578 12.60870 12972 ft 345 kts 107°
2026-05-06 21:49 55.39891 12.64961 13809 ft 351 kts 107°
2026-05-06 21:49 55.39185 12.69111 14582 ft 357 kts 108°
2026-05-06 21:49 55.38465 12.73320 15340 ft 362 kts 108°
2026-05-06 21:49 55.37732 12.77591 16099 ft 367 kts 108°
2026-05-06 21:50 55.36987 12.81914 16830 ft 372 kts 108°
2026-05-06 21:50 55.36230 12.86302 17556 ft 377 kts 109°
2026-05-06 21:50 55.35461 12.90746 18252 ft 383 kts 109°
2026-05-06 21:50 55.34681 12.95248 18871 ft 387 kts 109°
2026-05-06 21:51 55.33892 12.99786 19509 ft 390 kts 109°
2026-05-06 21:51 55.33093 13.04366 20141 ft 394 kts 109°
2026-05-06 21:51 55.32285 13.08987 20765 ft 397 kts 109°
2026-05-06 21:51 55.31468 13.13644 21378 ft 401 kts 109°
2026-05-06 21:52 55.30642 13.18340 21990 ft 404 kts 109°
2026-05-06 21:52 55.29809 13.23071 22592 ft 408 kts 109°
2026-05-06 21:52 55.28966 13.27837 23200 ft 411 kts 109°
2026-05-06 21:52 55.28116 13.32633 23755 ft 414 kts 109°
2026-05-06 21:53 55.27257 13.37467 24254 ft 416 kts 109°
2026-05-06 21:53 55.26392 13.42323 24778 ft 418 kts 109°
2026-05-06 21:53 55.25503 13.47184 25277 ft 419 kts 113°
2026-05-06 21:53 55.24089 13.51605 25776 ft 415 kts 131°
2026-05-06 21:54 55.22239 13.55491 26218 ft 417 kts 132°
2026-05-06 21:54 55.20363 13.59387 26696 ft 419 kts 133°
2026-05-06 21:54 55.18465 13.63271 27190 ft 420 kts 133°
2026-05-06 21:54 55.16549 13.67149 27667 ft 422 kts 134°
2026-05-06 21:55 55.14619 13.71031 28126 ft 424 kts 134°
2026-05-06 21:55 55.12676 13.74930 28574 ft 426 kts 134°
2026-05-06 21:55 55.10727 13.78834 29019 ft 428 kts 134°
2026-05-06 21:55 55.08766 13.82753 29456 ft 430 kts 134°
2026-05-06 21:56 55.06793 13.86691 29875 ft 432 kts 134°
2026-05-06 21:56 55.04810 13.90643 30249 ft 433 kts 134°
2026-05-06 21:56 55.02819 13.94601 30558 ft 436 kts 135°
2026-05-06 21:56 55.00809 13.98593 30849 ft 439 kts 135°
2026-05-06 21:57 54.98784 14.02606 31142 ft 442 kts 135°
2026-05-06 21:57 54.96745 14.06643 31428 ft 445 kts 135°
2026-05-06 21:57 54.94696 14.10693 31711 ft 448 kts 135°
2026-05-06 21:57 54.92627 14.14770 31990 ft 451 kts 136°
2026-05-06 21:58 54.90285 14.18326 32282 ft 444 kts 150°
2026-05-06 21:58 54.87735 14.21367 32625 ft 446 kts 148°
2026-05-06 21:58 54.85206 14.24494 32974 ft 447 kts 149°
2026-05-06 21:58 54.82660 14.27604 33359 ft 447 kts 149°
2026-05-06 21:59 54.80148 14.30651 33760 ft 446 kts 149°
2026-05-06 21:59 54.77595 14.33696 34121 ft 445 kts 151°
2026-05-06 21:59 54.74965 14.36660 34436 ft 445 kts 152°
2026-05-06 21:59 54.72369 14.39594 34739 ft 445 kts 151°
2026-05-06 22:00 54.69776 14.42527 34948 ft 447 kts 151°
2026-05-06 22:00 54.67172 14.45471 34956 ft 446 kts 151°
2026-05-06 22:00 54.61995 14.51312 34955 ft 444 kts 151°
2026-05-06 22:01 54.56860 14.57088 34940 ft 443 kts 152°
2026-05-06 22:01 54.51694 14.62882 34939 ft 443 kts 152°
2026-05-06 22:02 54.46528 14.68657 34944 ft 443 kts 152°
2026-05-06 22:02 54.41355 14.74424 34933 ft 443 kts 152°
2026-05-06 22:03 54.36182 14.80172 34933 ft 443 kts 152°
2026-05-06 22:03 54.31000 14.85913 34927 ft 443 kts 152°
2026-05-06 22:04 54.25588 14.90643 34929 ft 433 kts 167°
2026-05-06 22:04 54.19867 14.93989 34921 ft 435 kts 165°
2026-05-06 22:05 54.14129 14.97288 34920 ft 435 kts 166°
2026-05-06 22:05 54.08385 15.00549 34919 ft 435 kts 166°
2026-05-06 22:06 54.02626 15.03688 34908 ft 435 kts 166°
2026-05-06 22:06 53.96872 15.06825 34906 ft 435 kts 167°
2026-05-06 22:07 53.91120 15.09997 34905 ft 435 kts 166°
2026-05-06 22:07 53.85371 15.13168 34905 ft 434 kts 167°
2026-05-06 22:08 53.79662 15.16307 34909 ft 434 kts 167°
2026-05-06 22:08 53.73914 15.19458 34903 ft 434 kts 167°
2026-05-06 22:09 53.68178 15.22594 34901 ft 433 kts 167°
2026-05-06 22:09 53.62442 15.25719 34902 ft 433 kts 167°
2026-05-06 22:10 53.56709 15.28835 34896 ft 433 kts 167°
2026-05-06 22:10 53.50980 15.31940 34894 ft 433 kts 167°
2026-05-06 22:11 53.45253 15.35035 34889 ft 432 kts 167°
2026-05-06 22:11 53.39523 15.38123 34889 ft 432 kts 167°
2026-05-06 22:12 53.33800 15.41198 34878 ft 432 kts 167°
2026-05-06 22:12 53.28077 15.44264 34877 ft 432 kts 167°
2026-05-06 22:13 53.25219 15.45793 34775 ft 429 kts 167°
2026-05-06 22:13 53.22396 15.47301 34528 ft 425 kts 167°
2026-05-06 22:13 53.19590 15.48796 34314 ft 421 kts 167°
2026-05-06 22:13 53.16807 15.50278 34079 ft 418 kts 167°
2026-05-06 22:14 53.14042 15.51748 33844 ft 416 kts 167°
2026-05-06 22:14 53.11294 15.53208 33573 ft 413 kts 168°
2026-05-06 22:14 53.08566 15.54655 33304 ft 411 kts 168°
2026-05-06 22:14 53.05850 15.56093 33033 ft 408 kts 168°
2026-05-06 22:15 53.03148 15.57522 32787 ft 406 kts 168°
2026-05-06 22:15 53.00460 15.58943 32512 ft 403 kts 168°
2026-05-06 22:15 52.97854 15.60318 32019 ft 398 kts 168°
2026-05-06 22:15 52.95215 15.61708 31447 ft 396 kts 168°
2026-05-06 22:16 52.92595 15.63087 30893 ft 394 kts 168°
2026-05-06 22:16 52.89993 15.64454 30401 ft 391 kts 168°
2026-05-06 22:16 52.87411 15.65809 29945 ft 387 kts 167°
2026-05-06 22:16 52.84856 15.67149 29415 ft 384 kts 167°
2026-05-06 22:17 52.82323 15.68476 28929 ft 379 kts 167°
2026-05-06 22:17 52.79822 15.69784 28494 ft 375 kts 167°
2026-05-06 22:17 52.77352 15.71074 28054 ft 370 kts 167°
2026-05-06 22:17 52.74909 15.72348 27622 ft 367 kts 167°
2026-05-06 22:18 52.72488 15.73610 27200 ft 363 kts 167°
2026-05-06 22:18 52.70092 15.74857 26780 ft 360 kts 167°
2026-05-06 22:18 52.67714 15.76093 26371 ft 357 kts 167°
2026-05-06 22:18 52.65357 15.77317 25966 ft 354 kts 167°
2026-05-06 22:19 52.63023 15.78527 25669 ft 350 kts 167°
2026-05-06 22:19 52.60666 15.79728 25675 ft 359 kts 167°
2026-05-06 22:19 52.58249 15.80948 24991 ft 371 kts 167°
2026-05-06 22:19 52.55759 15.82261 24150 ft 380 kts 166°
2026-05-06 22:20 52.53206 15.83591 23244 ft 390 kts 166°
2026-05-06 22:20 52.50591 15.84944 22235 ft 397 kts 166°
2026-05-06 22:20 52.47933 15.86315 21252 ft 404 kts 166°
2026-05-06 22:20 52.45245 15.87698 20634 ft 401 kts 166°
2026-05-06 22:21 52.42632 15.89041 20428 ft 389 kts 166°
2026-05-06 22:21 52.40067 15.90357 19968 ft 384 kts 166°
2026-05-06 22:21 52.37531 15.91657 19505 ft 380 kts 166°
2026-05-06 22:21 52.35022 15.92941 19065 ft 376 kts 166°
2026-05-06 22:22 52.32538 15.94211 18623 ft 373 kts 166°
2026-05-06 22:22 52.30074 15.95470 18193 ft 370 kts 166°
2026-05-06 22:22 52.27629 15.96717 17705 ft 367 kts 166°
2026-05-06 22:22 52.25203 15.97953 17212 ft 364 kts 166°
2026-05-06 22:23 52.22788 15.99182 16719 ft 362 kts 165°
2026-05-06 22:23 52.20386 16.00403 16218 ft 361 kts 165°
2026-05-06 22:23 52.17997 16.01616 15730 ft 359 kts 165°
2026-05-06 22:23 52.15618 16.02823 15238 ft 357 kts 165°
2026-05-06 22:24 52.13252 16.04022 14771 ft 356 kts 165°
2026-05-06 22:24 52.10892 16.05216 14301 ft 354 kts 165°
2026-05-06 22:24 52.08549 16.06401 13873 ft 351 kts 165°
2026-05-06 22:24 52.06260 16.07556 13828 ft 337 kts 165°
2026-05-06 22:25 52.04069 16.08662 13783 ft 323 kts 165°
2026-05-06 22:25 52.01972 16.09719 13749 ft 309 kts 165°
2026-05-06 22:25 51.99959 16.10732 13700 ft 296 kts 165°
2026-05-06 22:25 51.98015 16.11709 13654 ft 292 kts 165°
2026-05-06 22:26 51.96026 16.12709 13562 ft 304 kts 165°
2026-05-06 22:26 51.93986 16.13733 13485 ft 310 kts 165°
2026-05-06 22:26 51.91923 16.14768 13419 ft 311 kts 165°
2026-05-06 22:26 51.89851 16.15805 13357 ft 311 kts 165°
2026-05-06 22:27 51.87780 16.16843 13187 ft 312 kts 165°
2026-05-06 22:27 51.85736 16.17865 12815 ft 311 kts 165°
2026-05-06 22:27 51.83672 16.18897 12437 ft 311 kts 165°
2026-05-06 22:27 51.81607 16.19927 12055 ft 310 kts 165°
2026-05-06 22:28 51.79554 16.20951 11690 ft 309 kts 165°
2026-05-06 22:28 51.77507 16.21971 11329 ft 307 kts 165°
2026-05-06 22:28 51.75468 16.22986 10968 ft 306 kts 165°
2026-05-06 22:28 51.73440 16.23994 10611 ft 304 kts 165°
2026-05-06 22:29 51.71424 16.24997 10263 ft 302 kts 165°
2026-05-06 22:29 51.69419 16.25991 9928 ft 300 kts 165°
2026-05-06 22:29 51.67441 16.26972 9834 ft 296 kts 165°
2026-05-06 22:29 51.65469 16.27948 9827 ft 297 kts 165°
2026-05-06 22:30 51.63493 16.28927 9824 ft 297 kts 165°
2026-05-06 22:30 51.61513 16.29906 9821 ft 297 kts 165°
2026-05-06 22:30 51.59533 16.30884 9819 ft 297 kts 165°
2026-05-06 22:30 51.57557 16.31860 9828 ft 297 kts 165°
2026-05-06 22:31 51.55589 16.32831 9855 ft 291 kts 165°
2026-05-06 22:31 51.53706 16.33758 9856 ft 276 kts 165°
2026-05-06 22:31 51.51895 16.34650 9854 ft 271 kts 165°
2026-05-06 22:31 51.50098 16.35534 9830 ft 270 kts 165°
2026-05-06 22:32 51.48302 16.36416 9819 ft 270 kts 165°
2026-05-06 22:32 51.46508 16.37297 9818 ft 270 kts 165°
2026-05-06 22:32 51.44713 16.38178 9819 ft 269 kts 165°
2026-05-06 22:32 51.43550 16.38749 9819 ft 260 kts 165°
2026-05-06 22:33 51.41837 16.39588 9819 ft 256 kts 165°
2026-05-06 22:33 51.40130 16.40423 9816 ft 256 kts 165°
2026-05-06 22:33 51.38430 16.41255 9816 ft 256 kts 165°
2026-05-06 22:33 51.36725 16.42089 9812 ft 256 kts 165°
2026-05-06 22:34 51.35025 16.42920 9814 ft 256 kts 165°
2026-05-06 22:34 51.33319 16.43752 9703 ft 257 kts 165°
2026-05-06 22:34 51.31580 16.44601 9161 ft 265 kts 165°
2026-05-06 22:34 51.29799 16.45469 8624 ft 271 kts 165°
2026-05-06 22:35 51.27973 16.46359 8095 ft 277 kts 165°
2026-05-06 22:35 51.26117 16.47262 7570 ft 281 kts 165°
2026-05-06 22:35 51.24230 16.48179 7059 ft 285 kts 165°
2026-05-06 22:35 51.22408 16.49487 6420 ft 296 kts 144°
2026-05-06 22:36 51.21163 16.52127 5776 ft 301 kts 115°
2026-05-06 22:36 51.20352 16.55161 5170 ft 292 kts 115°
2026-05-06 22:36 51.19539 16.57972 4587 ft 265 kts 116°
2026-05-06 22:36 51.18793 16.60506 3991 ft 241 kts 116°
2026-05-06 22:37 51.18099 16.62837 3402 ft 226 kts 115°
2026-05-06 22:37 51.17442 16.65019 2935 ft 208 kts 115°
2026-05-06 22:37 51.16851 16.66963 2654 ft 183 kts 115°
2026-05-06 22:37 51.16317 16.68727 2389 ft 174 kts 113°
2026-05-06 22:38 51.15832 16.70469 2119 ft 171 kts 113°
2026-05-06 22:38 51.15332 16.72159 1906 ft 171 kts 114°
2026-05-06 22:38 51.14806 16.73879 1753 ft 170 kts 114°
2026-05-06 22:38 51.14292 16.75548 1690 ft 168 kts 114°
2026-05-06 22:39 51.13806 16.77125 1705 ft 153 kts 114°
2026-05-06 22:39 51.13342 16.78629 1573 ft 149 kts 113°
2026-05-06 22:39 51.12884 16.80120 1375 ft 148 kts 114°
2026-05-06 22:39 51.12434 16.81570 1147 ft 149 kts 115°
2026-05-06 22:40 51.11979 16.83045 951 ft 146 kts 117°
2026-05-06 22:40 51.11533 16.84446 738 ft 146 kts 118°
2026-05-06 22:40 51.11090 16.85897 532 ft 147 kts 117°
2026-05-06 22:40 51.10655 16.87329 405 ft 131 kts 118°
2026-05-06 22:41 51.10261 16.88588 403 ft 17 kts 118°
2026-05-06 22:41 51.10202 16.88740 406 ft 9 kts 112°
2026-05-06 22:41 51.10204 16.88761 404 ft 1 kts 28°
2026-05-06 22:42 51.10211 16.88755 406 ft 3 kts 329°
2026-05-06 22:42 51.10232 16.88695 403 ft 11 kts 294°
2026-05-06 22:42 51.10283 16.88523 408 ft 22 kts 296°
2026-05-06 22:42 51.10351 16.88304 408 ft 13 kts 297°
2026-05-06 22:43 51.10409 16.88119 408 ft 23 kts 296°
2026-05-06 22:43 51.10492 16.87844 401 ft 25 kts 296°
2026-05-06 22:43 51.10574 16.87588 404 ft 22 kts 297°
2026-05-06 22:43 51.10646 16.87351 402 ft 15 kts 297°
2026-05-06 22:44 51.10721 16.87243 404 ft 15 kts
2026-05-06 22:44 51.10779 16.87291 406 ft 5 kts 12°
2026-05-06 22:44 51.10790 16.87298 406 ft 0 kts 26°
2026-05-06 22:45 51.10811 16.87315 405 ft 7 kts 27°
2026-05-06 22:45 51.10845 16.87343 405 ft 7 kts 26°
2026-05-06 22:46 51.10907 16.87391 405 ft 13 kts 26°
2026-05-06 22:46 51.10953 16.87462 405 ft 4 kts 92°
2026-05-06 22:46 51.10943 16.87493 405 ft 5 kts 120°
2026-05-06 22:46 51.10919 16.87566 406 ft 10 kts 115°
2026-05-06 22:47 51.10883 16.87684 406 ft 14 kts 115°
2026-05-06 22:47 51.10837 16.87835 402 ft 15 kts 116°
2026-05-06 22:47 51.10795 16.87973 406 ft 14 kts 115°
2026-05-06 22:47 51.10778 16.88046 406 ft 3 kts 75°
2026-05-06 22:48 51.10795 16.88063 406 ft 5 kts 27°
2026-05-06 22:48 51.10823 16.88086 406 ft 6 kts 26°
2026-05-06 22:48 51.10840 16.88099 406 ft 0 kts 25°